[[{"header":{"parameterUnit":"m.s-1","parameterCategory":1,"la1":30.2991,"la2":30.254,"lo1":-89.0895,"lo2":-89.0444,"dy":0.0017,"dx":0.0017,"nx":28,"ny":28,"refTime":"2023-08-09T09:00:00:Z","depth":0,"parameterNumber":2,"parameterNumberName":"U-component_of_WINDS"},"data":[0,0,0,0,0,0,0,0,0,0,0,0,0,0,0,0,0,0,0,0,0,0,0,0,0,0,0,0,0,0,0,0,0,0,0,0,0,0,0,0,0,0,0,0,0,0,0,0,0,0,0,0,0,0,0,0,0,0,2.0269,2.027,0,2.036,2.0361,2.0362,2.0333,2.0332,2.033,2.0328,2.0419,2.0423,2.0427,0,0,0,0,0,0,0,0,0,0,0,0,0,2.0071,2.0075,2.0269,2.027,2.0271,2.0359,2.0361,2.0362,2.0334,2.0331,2.0329,2.0327,2.0417,2.0422,2.0427,0,0,0,0,0,0,0,0,0,0,0,0,0,2.0159,2.0076,2.0269,2.0268,2.0269,2.0359,2.0361,2.0362,2.0334,2.0331,2.0329,2.0326,2.0416,2.0422,2.0428,2.0524,0,0,2.0447,2.045,0,0,0,0,0,0,0,0,2.0154,2.0166,2.0267,2.0268,2.0269,2.0332,2.0324,2.0416,2.0335,2.0309,2.0328,2.0324,2.0392,2.04,2.0423,2.0528,2.0532,2.0448,2.0452,2.0454,2.0456,0,0,0,0,0,0,0,2.0148,2.0162,2.0305,2.0269,2.027,2.0263,2.0272,2.0342,2.0366,2.0311,2.031,2.0321,2.0392,2.0417,2.0425,2.0534,2.0448,2.0453,2.0457,2.046,2.0721,2.0724,0,0,0,0,0,0,2.0141,2.0157,2.0302,2.0308,2.0204,2.0269,2.0279,2.0315,2.0365,2.037,2.0323,2.0319,2.0408,2.0418,2.0428,2.0543,2.0454,2.046,2.0464,2.0718,2.0722,2.0726,0,0,0,0,0,0,2.0137,2.0154,2.0298,2.0232,2.025,2.0275,2.0316,2.0318,2.0343,2.0374,2.0378,2.0344,2.0406,2.042,2.05,2.0546,2.0463,2.0469,2.0715,2.0719,2.0724,2.0773,0,0,0,0,0,0,2.0132,2.0153,2.019,2.0233,2.0253,2.0369,2.0319,2.0322,2.0354,2.035,2.0395,2.0399,2.0405,2.0491,2.0507,2.0553,2.0474,2.071,2.0717,2.0722,2.0767,2.0779,2.0789,0,0,0,0,0,2.0125,2.02,2.0192,2.0209,2.03,2.0372,2.0383,2.0389,2.0358,2.0395,2.0415,2.0398,2.0539,2.05,2.0517,2.0566,2.0708,2.0715,2.0722,2.0763,2.0777,2.0789,0,0,0,0,0,0,2.016,2.0205,2.0197,2.0289,2.0327,2.0367,2.0413,2.0404,2.045,2.0444,2.0449,2.0459,2.0542,2.0562,2.0518,2.0661,2.0619,2.063,2.0644,2.0657,2.0668,2.066,2.0479,0,0,0,0,0,2.0179,2.0234,2.0271,2.0348,2.0368,2.0388,2.0419,2.042,2.0459,2.0475,2.0501,2.0539,2.0592,2.0626,2.0677,2.0772,2.078,2.0814,2.0824,2.0833,2.0841,2.0892,2.0907,2.0749,2.0749,2.0749,0,0,2.0217,2.0249,2.0283,2.0356,2.0385,2.0441,2.0401,2.0462,2.0503,2.0484,2.0561,2.0582,2.0625,2.0713,2.0753,2.0733,2.0887,2.0842,2.0849,2.0852,2.0901,2.0916,2.0929,2.0754,2.0753,2.0752,0,0,2.0316,2.0347,2.0413,2.0445,2.049,2.0504,2.052,2.0562,2.0575,2.0654,2.064,2.069,2.0781,2.0812,2.084,2.0953,2.0938,2.0969,2.1023,2.1073,2.1085,2.1096,2.1134,2.1148,2.0978,2.0978,2.0979,0,2.0357,2.0442,2.0449,2.0512,2.0543,2.053,2.0598,2.0628,2.0687,2.0709,2.0686,2.0801,2.0829,2.0923,2.0951,2.0975,2.0993,2.0962,2.1083,2.1094,2.1104,2.1141,2.1155,2.0982,2.0981,2.0981,2.0981,0,2.049,2.0549,2.0598,2.0656,2.0694,2.0759,2.0776,2.0813,2.0812,2.0828,2.0908,2.0942,2.0998,2.1022,2.1021,2.1117,2.1102,2.1082,2.1038,2.1122,2.1156,2.1171,2.0986,2.0985,2.0984,2.0983,0,0,2.0609,2.0673,2.069,2.0717,2.0768,2.0813,2.0878,2.0934,2.0965,2.1008,2.1061,2.114,2.1121,2.1153,2.1156,2.12,2.1285,2.1174,2.1175,2.1191,2.139,2.1403,2.1419,2.1277,2.128,2.1282,2.1385,0,2.071,2.0823,2.0832,2.0934,2.0988,2.0978,2.1034,2.1071,2.1089,2.1137,2.1156,2.121,2.1183,2.1201,2.1245,2.1265,2.1324,2.1258,2.1325,2.1327,2.1311,2.1437,2.1451,2.1547,2.1399,2.1401,2.1403,0,2.0841,2.0888,2.0995,2.1039,2.1062,2.1112,2.1165,2.1212,2.1254,2.1263,2.13,2.1297,2.1363,2.1321,2.1411,2.1366,2.1395,2.1409,2.1413,2.1416,2.1368,2.1441,2.1577,2.1591,2.1425,2.1423,2.1421,0,2.0914,2.1005,2.108,2.1104,2.1157,2.1193,2.1217,2.1256,2.129,2.1336,2.1358,2.1411,2.144,2.1481,2.1493,2.1461,2.1583,2.1541,2.1591,2.159,2.1613,2.1611,2.1753,2.1637,2.1637,2.1637,2.1636,0,2.1022,2.1088,2.1114,2.116,2.1233,2.1244,2.1316,2.1338,2.1374,2.1424,2.142,2.1466,2.1481,2.153,2.1541,2.1613,2.1627,2.1635,2.1636,2.1633,2.1632,2.1649,2.1642,2.1641,2.164,2.1639,2.1638,0,2.1114,2.1135,2.1216,2.1261,2.1274,2.1326,2.1364,2.1408,2.1426,2.1489,2.1505,2.1532,2.159,2.1608,2.1677,2.1684,2.1768,2.1765,2.1754,2.1753,2.18,2.1794,2.1955,2.1976,2.185,2.1851,2.1852,0,2.118,2.1231,2.1282,2.1315,2.1341,2.1395,2.143,2.1444,2.148,2.1533,2.157,2.1628,2.1675,2.1768,2.1793,2.1847,2.1843,2.1896,2.1851,2.1846,2.1841,2.1836,2.184,2.1903,2.1905,2.1906,2.1907,0,2.1295,2.1303,2.1354,2.1408,2.145,2.1493,2.1535,2.1563,2.1582,2.1623,2.1683,2.1719,2.1791,2.1848,2.1903,2.1927,2.192,2.1921,2.1935,2.1931,2.1921,2.1924,2.1773,2.1917,2.1916,2.1915,2.1914,2.1914,2.1374,2.1418,2.1461,2.1518,2.1551,2.1591,2.1634,2.1658,2.1709,2.1768,2.1774,2.1839,2.188,2.1953,2.1981,2.2031,2.2015,2.2035,2.204,2.2044,2.2047,2.1916,2.2041,2.2041,2.2041,2.204,2.204,0,2.1486,2.1514,2.1566,2.1625,2.167,2.1662,2.1708,2.1745,2.1802,2.1843,2.1889,2.1958,2.2013,2.2045,2.21,2.2134,2.2132,2.2148,2.2144,2.2149,2.2059,2.204,2.2149,2.2149,2.2149,2.2149,2.2148,2.2148,2.1549,2.1623,2.1637,2.1727,2.1755,2.1818,2.1845,2.1881,2.1913,2.199,2.2037,2.2058,2.2094,2.2153,2.2203,2.2211,2.223,2.2248,2.2253,2.2167,2.2156,2.2145,2.2127,2.2253,2.2253,2.2339,2.234,2.2341]},{"header":{"parameterUnit":"m.s-1","parameterCategory":1,"la1":30.2991,"la2":30.254,"lo1":-89.0895,"lo2":-89.0444,"dy":0.0017,"dx":0.0017,"nx":28,"ny":28,"refTime":"2023-08-09T09:00:00:Z","depth":0,"parameterNumber":3,"parameterNumberName":"V-component_of_WINDS"},"data":[0,0,0,0,0,0,0,0,0,0,0,0,0,0,0,0,0,0,0,0,0,0,0,0,0,0,0,0,0,0,0,0,0,0,0,0,0,0,0,0,0,0,0,0,0,0,0,0,0,0,0,0,0,0,0,0,0,0,3.2601,3.2601,0,3.2608,3.2608,3.2608,3.2549,3.2547,3.2546,3.2544,3.255,3.2552,3.2554,0,0,0,0,0,0,0,0,0,0,0,0,0,3.2533,3.2535,3.2601,3.2601,3.2601,3.2608,3.2608,3.2608,3.2549,3.2547,3.2545,3.2543,3.255,3.2552,3.2554,0,0,0,0,0,0,0,0,0,0,0,0,0,3.2554,3.2535,3.2601,3.2572,3.257,3.2608,3.2608,3.2608,3.255,3.2547,3.2545,3.2542,3.2549,3.2551,3.2554,3.2619,0,0,3.2562,3.2563,0,0,0,0,0,0,0,0,3.2553,3.2556,3.2576,3.2574,3.2572,3.2575,3.2587,3.2612,3.255,3.2557,3.2544,3.2541,3.256,3.2562,3.2569,3.262,3.262,3.2562,3.2564,3.2565,3.2565,0,0,0,0,0,0,0,3.2551,3.2555,3.2604,3.2577,3.2574,3.2558,3.2559,3.2591,3.2573,3.2556,3.2552,3.2554,3.2559,3.2566,3.2568,3.262,3.2562,3.2564,3.2566,3.2567,3.2723,3.2726,0,0,0,0,0,0,3.2554,3.2555,3.2603,3.2604,3.2556,3.2562,3.2562,3.2576,3.2572,3.2569,3.2556,3.2551,3.2563,3.2565,3.2568,3.2643,3.2565,3.2567,3.2569,3.2721,3.2724,3.2727,0,0,0,0,0,0,3.2553,3.2559,3.2603,3.2578,3.2583,3.2565,3.2582,3.2578,3.2585,3.2572,3.2568,3.2567,3.2561,3.2565,3.2607,3.2642,3.2568,3.2571,3.2718,3.2722,3.2725,3.2794,0,0,0,0,0,0,3.2551,3.2559,3.2584,3.2579,3.2584,3.2642,3.2585,3.258,3.259,3.2584,3.2581,3.2579,3.256,3.2603,3.2609,3.2644,3.2573,3.2714,3.2719,3.2724,3.2788,3.28,3.2809,0,0,0,0,0,3.2549,3.2603,3.2585,3.2592,3.2615,3.2644,3.2647,3.2624,3.2593,3.2618,3.2609,3.2579,3.2638,3.2608,3.2614,3.2651,3.2712,3.2718,3.2724,3.2783,3.2797,3.2809,0,0,0,0,0,0,3.2612,3.2602,3.2582,3.2637,3.2642,3.2634,3.2665,3.264,3.2654,3.2647,3.2618,3.2618,3.2665,3.2662,3.2629,3.2713,3.2669,3.2677,3.2713,3.2726,3.2736,3.2735,3.2575,0,0,0,0,0,3.2633,3.2658,3.2647,3.2696,3.27,3.2682,3.2694,3.2676,3.268,3.2681,3.2676,3.268,3.2699,3.2713,3.273,3.2788,3.2786,3.2816,3.2827,3.2836,3.2842,3.287,3.2883,3.2746,3.2746,3.2746,0,0,3.2675,3.2672,3.269,3.2709,3.2711,3.2736,3.2684,3.2714,3.2732,3.2686,3.2724,3.2721,3.2724,3.2774,3.2795,3.2773,3.2879,3.2843,3.285,3.2851,3.2878,3.2891,3.2902,3.275,3.2749,3.2749,0,0,3.2764,3.2766,3.2805,3.2808,3.2812,3.28,3.281,3.2806,3.2801,3.284,3.2805,3.2827,3.2861,3.2864,3.287,3.296,3.2932,3.2967,3.3021,3.3049,3.306,3.307,3.31,3.3111,3.2974,3.2974,3.2974,0,3.2816,3.2853,3.2829,3.286,3.2869,3.2829,3.2869,3.2873,3.2882,3.2888,3.2863,3.2905,3.2904,3.2953,3.2975,3.2983,3.2991,3.2966,3.3061,3.307,3.3078,3.3107,3.3118,3.2978,3.2977,3.2977,3.2977,0,3.2915,3.2942,3.2974,3.2983,3.2995,3.3031,3.3011,3.3027,3.3008,3.2999,3.3038,3.3036,3.3051,3.3062,3.3044,3.3108,3.3094,3.3066,3.3021,3.3096,3.3122,3.3133,3.2984,3.2982,3.2981,3.298,0,0,3.3043,3.3039,3.3051,3.3054,3.3055,3.3074,3.3108,3.3123,3.3136,3.3144,3.317,3.32,3.3173,3.318,3.3162,3.3188,3.3257,3.3156,3.3155,3.3173,3.3325,3.3345,3.3358,3.3239,3.3241,3.3243,3.3324,0,3.3129,3.3185,3.3164,3.3222,3.3245,3.3207,3.3236,3.3239,3.3231,3.3249,3.324,3.3261,3.3225,3.3229,3.3253,3.3243,3.3286,3.3237,3.3261,3.3262,3.3259,3.3372,3.3393,3.347,3.3334,3.3336,3.3337,0,3.3235,3.3247,3.3307,3.3302,3.3311,3.3337,3.3349,3.3367,3.337,3.3362,3.337,3.3346,3.3377,3.3335,3.3376,3.3343,3.3352,3.3349,3.3352,3.3351,3.3303,3.3372,3.3494,3.3505,3.3354,3.3352,3.3351,0,3.332,3.3351,3.339,3.3394,3.3391,3.3409,3.3409,3.3409,3.3419,3.3429,3.3435,3.345,3.3457,3.3468,3.3448,3.3419,3.3492,3.3448,3.3485,3.3486,3.3501,3.35,3.3623,3.351,3.351,3.351,3.351,0,3.3416,3.3453,3.3428,3.3452,3.3492,3.3468,3.3508,3.3504,3.3504,3.3526,3.3495,3.3516,3.349,3.3508,3.3493,3.3529,3.3533,3.3527,3.3522,3.3528,3.3529,3.3532,3.3525,3.3513,3.3512,3.3512,3.3511,0,3.3516,3.3501,3.3541,3.3534,3.3533,3.3563,3.3557,3.3579,3.3569,3.3596,3.3601,3.3585,3.3605,3.3587,3.3607,3.3597,3.3644,3.3633,3.3643,3.3639,3.3676,3.3672,3.3805,3.382,3.3699,3.37,3.3701,0,3.3577,3.3605,3.3602,3.3614,3.3615,3.3636,3.3645,3.3623,3.3634,3.3639,3.366,3.3677,3.3689,3.3723,3.3712,3.3727,3.3714,3.3759,3.3716,3.3721,3.3712,3.371,3.3712,3.3768,3.3769,3.377,3.3771,0,3.3687,3.3678,3.3693,3.3706,3.3719,3.3728,3.3735,3.3747,3.3724,3.3738,3.3758,3.3768,3.3787,3.3804,3.3815,3.3813,3.3788,3.3785,3.3794,3.38,3.3804,3.38,3.3665,3.3782,3.3781,3.378,3.3779,3.3779,3.3768,3.379,3.3791,3.3809,3.3812,3.3818,3.3838,3.383,3.3846,3.386,3.3846,3.387,3.3871,3.3883,3.3884,3.3902,3.3883,3.3896,3.3899,3.3903,3.3907,3.3803,3.3904,3.3904,3.3904,3.3903,3.3903,0,3.3874,3.3872,3.3889,3.3899,3.3913,3.3889,3.3895,3.3908,3.393,3.3933,3.3946,3.3968,3.3984,3.3976,3.399,3.4005,3.3994,3.401,3.4007,3.4007,3.3925,3.3914,3.4018,3.4018,3.4018,3.4018,3.4018,3.4018,3.393,3.3966,3.3957,3.3993,3.3991,3.4014,3.402,3.4025,3.4028,3.4054,3.4067,3.4062,3.406,3.4073,3.4087,3.4084,3.4089,3.4109,3.4101,3.4024,3.4013,3.4002,3.3992,3.4111,3.4111,3.4182,3.4182,3.4183]}]]